CAPE
236 37 0 0 0 7 19 12 0 12 6 10 20 24 16 13 42 35 29 21 15 11 27 32 30 40 38 31 25 7 2 3 15 8 14 15 36 4 0 1 0 0 0
227 79 7 38 0 0 7 10 8 15 29 5 10 6 0 0 0 20 31 34 33 30 24 7 3 8 15 16 8 6 4 11 10 3 3 0 14 0 0 0 0 0 0
341 180 10 21 50 0 2 7 17 10 0 0 4 0 0 0 0 0 0 0 0 0 1 0 0 2 1 0 4 0 0 7 4 18 4 1 5 0 0 0 0 0 0
391 344 174 8 38 32 16 0 1 0 0 0 0 0 0 0 0 0 0 0 0 0 0 0 0 0 0 0 0 0 0 0 0 0 5 3 0 0 0 0 0 0 0
580 268 167 56 57 54 4 0 0 0 0 0 0 0 0 0 0 0 0 0 0 0 0 0 0 0 0 0 0 0 0 0 0 0 0 1 2 2 6 0 0 0 0
667 389 146 58 85 35 0 0 0 0 0 0 0 0 0 0 0 0 0 0 0 0 0 1 2 1 2 1 0 0 0 0 0 0 0 0 0 0 0 2 0 0 0
455 721 179 144 78 38 0 0 0 0 0 0 0 0 0 0 0 0 0 0 0 1 1 1 1 1 0 0 0 0 0 0 0 0 0 0 0 0 0 1 1 0 0
212 393 176 84 19 0 0 0 0 0 0 0 0 0 0 0 0 0 0 0 0 0 0 0 0 0 0 0 0 0 0 0 0 0 0 0 0 0 0 0 0 0 0
0 142 89 28 0 0 0 0 0 0 0 0 0 0 0 0 0 0 0 0 0 0 0 0 0 0 0 0 0 0 0 0 0 0 0 0 0 0 0 0 0 0 0
0 0 16 4 0 0 0 0 0 0 0 0 0 0 0 0 0 0 0 0 0 0 0 0 0 0 0 0 0 0 0 0 0 0 0 0 0 0 0 0 0 0 0
3 1 1 1 0 2 0 0 0 0 0 0 0 0 0 0 0 0 0 0 0 0 0 0 0 0 0 0 0 0 0 0 0 0 0 0 0 0 0 0 0 0 0
2 2 6 5 4 3 0 0 0 0 0 0 0 0 0 0 0 0 0 0 0 0 0 0 0 0 0 0 0 0 0 0 0 0 0 0 0 0 0 0 0 0 0
2 3 4 3 3 4 4 4 1 0 0 0 0 0 0 0 0 0 0 0 0 0 0 0 0 0 0 0 0 0 0 0 0 0 0 0 0 0 0 0 0 0 0
1 2 1 0 0 1 0 1 2 0 0 0 0 1 1 0 0 0 0 0 0 0 0 0 0 0 0 0 0 0 0 0 0 0 0 0 0 0 0 0 0 0 0
1 1 1 1 1 0 0 0 0 0 0 0 0 0 0 0 0 0 0 0 0 0 0 0 0 0 0 0 0 0 0 0 0 0 0 0 0 0 0 0 0 0 0
0 0 0 0 0 0 0 0 0 0 0 0 0 0 0 0 0 0 0 0 0 0 0 0 0 0 0 0 0 0 0 0 0 0 0 0 0 0 0 0 0 0 0
0 0 0 0 0 0 0 0 0 0 0 0 0 0 0 0 0 0 0 0 0 0 0 0 0 0 0 0 0 0 0 0 0 0 0 0 0 0 0 0 0 0 0
0 0 0 0 0 0 0 0 0 0 0 0 0 0 0 0 0 0 0 0 0 0 0 0 0 0 0 0 0 0 0 0 0 0 0 0 0 0 0 0 0 0 0
0 0 0 0 0 0 0 0 0 0 0 0 0 0 0 0 0 0 0 0 0 0 0 0 0 0 0 0 0 0 0 0 0 0 0 0 0 0 0 0 0 0 0
0 0 0 0 0 0 0 0 0 0 0 0 0 0 0 0 0 0 0 0 0 0 0 0 0 0 0 0 0 0 0 0 0 0 0 0 0 0 0 0 0 0 0
0 0 0 0 0 0 0 0 0 0 0 0 0 0 0 0 0 0 0 0 0 0 0 0 0 0 0 0 0 0 0 0 0 0 0 0 0 0 0 0 0 0 0
0 0 0 0 0 0 0 0 0 0 0 0 0 0 0 0 0 0 0 0 0 0 0 0 0 0 0 0 0 0 0 0 0 0 0 0 0 0 0 0 0 0 0
0 0 0 0 0 0 0 0 0 0 0 0 0 0 0 0 0 0 0 0 0 0 0 0 0 0 0 0 0 0 0 0 0 0 0 0 0 0 0 0 0 0 0
2 0 0 0 0 0 0 0 0 0 0 0 0 0 0 0 0 0 0 0 0 0 0 0 0 0 0 0 0 0 0 0 0 0 0 0 0 0 0 0 0 0 0
0 0 0 0 0 0 0 0 0 0 0 0 0 0 0 0 0 0 0 0 0 0 0 0 0 0 0 0 0 0 0 0 0 0 0 0 0 0 0 0 0 0 0
0 0 0 0 0 0 0 0 0 0 0 0 0 0 0 0 0 0 0 0 0 0 0 0 0 0 0 0 0 0 0 0 0 0 0 0 0 0 0 0 0 0 0
CIN
-133 -130 -0 -0 -0 -116 -157 -128 -0 -108 -62 -52 -70 -85 -69 -27 -8 -19 -38 -49 -58 -46 -60 -65 -58 -53 -38 -48 -55 -77 -91 -119 -73 -96 -97 -110 -70 -26 -0 -54 -0 -0 -0
-155 -177 -121 -156 -0 -0 -125 -157 -138 -107 -89 -88 -121 -133 -6 -0 -23 -37 -37 -58 -61 -60 -49 -63 -52 -32 -64 -64 -56 -49 -44 -57 -45 -33 -56 -2 -59 -4 -0 -0 -0 -0 -0
-146 -143 -107 -177 -130 -0 -35 -121 -137 -97 -0 -0 -173 -74 -0 -0 -0 -0 -0 -0 -0 -0 -0 -0 -0 -12 -55 -0 -72 -0 -0 -55 -30 -14 -22 -3 -37 -0 -0 -0 -0 -0 -0
-126 -114 -126 -78 -129 -130 -147 -0 -10 -0 -0 -0 -0 -0 -0 -0 -0 -0 -0 -0 -0 -0 -0 -0 -0 -14 -0 -0 -0 -0 -0 -0 -0 -0 -15 -16 -0 -0 -0 -0 -0 -0 -0
-84 -124 -135 -162 -120 -98 -44 -0 -0 -0 -0 -0 -0 -0 -0 -0 -0 -0 -0 -0 -0 -0 -0 -0 -0 -0 -0 -0 -0 -0 -0 -0 -0 -0 -2 -14 -8 -20 -41 -0 -0 -0 -0
-81 -93 -150 -232 -147 -104 -0 -0 -0 -0 -0 -0 -0 -0 -0 -0 -0 -0 -0 -0 -0 -0 -0 -0 -0 -0 -0 -0 -0 -0 -0 -0 -0 -0 -0 -0 -0 -0 -0 -5 -0 -0 -0
-104 -45 -89 -88 -148 -126 -0 -0 -0 -0 -0 -0 -0 -0 -0 -0 -0 -0 -0 -0 -0 -0 -0 -0 -0 -0 -0 -0 -0 -0 -0 -0 -0 -0 -0 -0 -0 -0 -0 -0 -0 -0 -0
-162 -86 -79 -78 -110 -0 -0 -0 -0 -0 -0 -0 -0 -0 -0 -0 -0 -0 -0 -0 -0 -0 -0 -0 -0 -0 -0 -0 -0 -0 -0 -0 -0 -0 -0 -0 -0 -0 -0 -0 -0 -0 -0
-0 -116 -88 -105 -0 -0 -0 -0 -0 -0 -0 -0 -0 -0 -0 -0 -0 -0 -0 -0 -0 -0 -0 -0 -0 -0 -0 -0 -0 -0 -0 -0 -0 -0 -0 -0 -0 -0 -0 -0 -0 -0 -0
-0 -0 -102 -116 -0 -0 -0 -0 -0 -0 -0 -0 -0 -0 -0 -0 -0 -0 -0 -0 -0 -0 -0 -0 -0 -0 -0 -0 -0 -0 -0 -0 -0 -0 -0 -0 -0 -0 -0 -0 -0 -0 -0
-0 -0 -0 -0 -0 -0 -0 -0 -0 -0 -0 -0 -0 -0 -0 -0 -0 -0 -0 -0 -0 -0 -0 -0 -0 -0 -0 -0 -0 -0 -0 -0 -0 -0 -0 -0 -0 -0 -0 -0 -0 -0 -0
-0 -0 -0 -0 -0 -0 -0 -0 -0 -0 -0 -0 -0 -0 -0 -0 -0 -0 -0 -0 -0 -0 -0 -0 -0 -0 -0 -0 -0 -0 -0 -0 -0 -0 -0 -0 -0 -0 -0 -0 -0 -0 -0
-0 -0 -0 -0 -0 -0 -0 -0 -0 -0 -0 -0 -0 -0 -0 -0 -0 -0 -0 -0 -0 -0 -0 -0 -0 -0 -0 -0 -0 -0 -0 -0 -0 -0 -0 -0 -0 -0 -0 -0 -0 -0 -0
-0 -0 -0 -0 -0 -0 -0 -0 -0 -0 -0 -0 -0 -0 -0 -0 -0 -0 -0 -0 -0 -0 -0 -0 -0 -0 -0 -0 -0 -0 -0 -0 -0 -0 -0 -0 -0 -0 -0 -0 -0 -0 -0
-0 -0 -0 -0 -0 -0 -0 -0 -0 -0 -0 -0 -0 -0 -0 -0 -0 -0 -0 -0 -0 -0 -0 -0 -0 -0 -0 -0 -0 -0 -0 -0 -0 -0 -0 -0 -0 -0 -0 -0 -0 -0 -0
-0 -0 -0 -0 -0 -0 -0 -0 -0 -0 -0 -0 -0 -0 -0 -0 -0 -0 -0 -0 -0 -0 -0 -0 -0 -0 -0 -0 -0 -0 -0 -0 -0 -0 -0 -0 -0 -0 -0 -0 -0 -0 -0
-0 -0 -0 -0 -0 -0 -0 -0 -0 -0 -0 -0 -0 -0 -0 -0 -0 -0 -0 -0 -0 -0 -0 -0 -0 -0 -0 -0 -0 -0 -0 -0 -0 -0 -0 -0 -0 -0 -0 -0 -0 -0 -0
-0 -0 -0 -0 -0 -0 -0 -0 -0 -0 -0 -0 -0 -0 -0 -0 -0 -0 -0 -0 -0 -0 -0 -0 -0 -0 -0 -0 -0 -0 -0 -0 -0 -0 -0 -0 -0 -0 -0 -0 -0 -0 -0
-0 -0 -0 -0 -0 -0 -0 -0 -0 -0 -0 -0 -0 -0 -0 -0 -0 -0 -0 -0 -0 -0 -0 -0 -0 -0 -0 -0 -0 -0 -0 -0 -0 -0 -0 -0 -0 -0 -0 -0 -0 -0 -0
-0 -0 -0 -0 -0 -0 -0 -0 -0 -0 -0 -0 -0 -0 -0 -0 -0 -0 -0 -0 -0 -0 -0 -0 -0 -0 -0 -0 -0 -0 -0 -0 -0 -0 -0 -0 -0 -0 -0 -0 -0 -0 -0
-0 -0 -0 -0 -0 -0 -0 -0 -0 -0 -0 -0 -0 -0 -0 -0 -0 -0 -0 -0 -0 -0 -0 -0 -0 -0 -0 -0 -0 -0 -0 -0 -0 -0 -0 -0 -0 -0 -0 -0 -0 -0 -0
-0 -0 -0 -0 -0 -0 -0 -0 -0 -0 -0 -0 -0 -0 -0 -0 -0 -0 -0 -0 -0 -0 -0 -0 -0 -0 -0 -0 -0 -0 -0 -0 -0 -0 -0 -0 -0 -0 -0 -0 -0 -0 -0
-0 -0 -0 -0 -0 -0 -0 -0 -0 -0 -0 -0 -0 -0 -0 -0 -0 -0 -0 -0 -0 -0 -0 -0 -0 -0 -0 -0 -0 -0 -0 -0 -0 -0 -0 -0 -0 -0 -0 -0 -0 -0 -0
-52 -0 -0 -0 -0 -0 -0 -0 -0 -0 -0 -0 -0 -0 -0 -0 -0 -0 -0 -0 -0 -0 -0 -0 -0 -0 -0 -0 -0 -0 -0 -0 -0 -0 -0 -0 -0 -0 -0 -0 -0 -0 -0
-0 -0 -0 -0 -0 -0 -0 -0 -0 -0 -0 -0 -0 -0 -0 -0 -0 -0 -0 -0 -0 -0 -0 -0 -0 -0 -0 -0 -0 -0 -0 -0 -0 -0 -0 -0 -0 -0 -0 -0 -0 -0 -0
-0 -0 -0 -0 -0 -0 -0 -0 -0 -0 -0 -0 -0 -0 -0 -0 -0 -0 -0 -0 -0 -0 -0 -0 -0 -0 -0 -0 -0 -0 -0 -0 -0 -0 -0 -0 -0 -0 -0 -0 -0 -0 -0
Wind_Speed
14 16 17 18 18 22 24 25 26 26 23 21 18 15 14 14 13 12 16 18 20 18 17 13 13 12 12 19 20 23 23 22 23 24 24 23 19 17 16 16 17 18 18
14 15 16 17 19 22 23 24 25 25 25 22 22 20 17 13 11 10 10 10 10 9 10 10 11 10 14 17 18 20 22 19 21 25 22 20 17 20 18 18 20 19 19
14 14 15 17 19 20 22 22 23 23 24 23 20 21 20 17 15 12 10 10 10 10 10 9 10 10 10 13 13 13 16 16 17 18 18 19 16 16 17 17 19 19 19
13 14 15 16 16 18 20 21 21 21 22 22 22 20 20 18 16 15 13 13 13 13 13 11 10 9 8 12 13 12 13 14 15 15 15 17 17 18 19 20 20 19 19
10 13 14 15 16 17 18 19 19 19 20 21 21 21 20 20 19 17 16 15 14 14 14 13 12 12 12 12 12 13 13 14 15 16 17 19 20 19 20 18 19 17 17
6 8 12 14 15 15 16 17 18 18 19 20 20 20 20 20 19 18 17 16 16 15 14 14 15 15 15 15 15 16 18 17 17 19 19 21 20 20 21 20 17 17 17
7 6 10 11 13 13 14 14 15 16 17 18 19 19 20 20 19 18 18 17 16 16 15 15 16 16 16 16 16 18 19 20 20 18 18 20 19 19 17 17 9 12 13
19 6 6 8 9 11 11 11 12 14 16 17 18 18 18 19 18 19 19 17 17 17 17 15 16 16 16 16 16 17 19 20 20 18 17 16 17 18 18 17 15 13 14
25 15 4 4 6 8 9 10 10 12 14 16 18 18 17 18 17 17 18 18 18 18 17 16 16 16 16 16 16 17 17 18 19 19 18 18 19 18 17 17 17 19 21
25 24 7 3 3 5 6 8 9 10 13 15 17 17 17 16 16 15 16 15 15 15 17 17 17 16 17 17 17 17 18 19 18 18 19 20 20 20 21 21 21 22 23
21 18 14 8 5 5 5 6 8 9 12 14 15 17 17 17 17 16 15 14 14 13 14 16 17 18 18 19 19 18 17 17 17 17 19 20 22 23 23 23 23 23 24
18 15 13 11 8 6 4 4 6 8 11 13 15 16 18 18 17 15 14 14 14 14 14 15 17 18 19 19 20 20 19 18 18 18 20 21 22 24 25 24 25 24 23
16 15 13 10 8 9 8 7 6 9 9 12 13 14 16 16 15 16 15 14 14 14 15 16 17 17 19 20 21 21 21 20 20 20 21 22 23 24 25 25 25 25 23
16 14 12 10 8 9 11 8 10 10 10 12 13 12 13 14 14 14 14 14 14 15 16 16 17 18 19 20 21 22 22 21 21 21 21 22 23 25 27 26 25 25 24
15 14 13 12 10 9 10 11 11 13 11 11 12 12 12 12 13 13 13 14 15 15 15 16 17 17 18 20 21 22 23 22 22 21 22 23 25 27 27 26 25 24 25
14 14 13 12 12 11 10 12 14 13 12 12 12 12 12 12 12 13 14 14 15 15 16 16 17 17 17 18 20 22 23 23 23 22 23 24 26 27 27 26 24 25 26
13 13 13 13 12 12 11 11 11 13 13 13 12 12 12 12 13 14 14 14 15 15 16 16 16 17 18 19 21 22 23 23 21 21 23 24 25 26 26 24 24 24 24
13 13 14 15 15 14 13 13 12 12 12 12 13 12 12 13 14 14 12 13 14 16 16 15 15 17 19 20 21 21 21 21 21 21 23 24 26 25 24 24 24 24 23
13 14 14 15 15 14 14 14 13 13 12 12 11 12 12 14 14 13 11 11 13 14 14 15 15 17 18 19 21 21 20 18 18 20 22 24 25 24 23 21 22 22 23
12 12 12 12 13 13 13 14 13 13 13 12 11 10 11 13 13 13 12 12 13 13 13 14 15 16 17 19 20 20 19 17 17 19 21 23 24 24 21 21 21 22 21
10 9 9 10 10 11 12 12 13 13 14 13 11 10 10 11 12 13 13 14 14 15 14 14 13 13 15 16 17 19 18 16 16 18 20 22 23 23 20 19 20 19 17
7 7 8 8 8 9 11 11 12 11 12 12 11 11 11 13 13 12 12 14 14 14 14 14 13 11 12 12 13 15 16 15 14 16 18 20 21 21 18 18 18 17 18
8 9 9 7 9 10 11 11 11 11 9 10 12 9 8 11 10 10 11 12 13 13 13 12 12 12 11 12 12 12 12 11 12 14 16 17 17 17 17 16 16 16 17
12 12 11 10 10 9 10 10 10 10 6 7 9 8 6 8 7 9 11 11 11 10 10 9 10 11 11 13 14 14 13 12 12 14 14 14 14 13 14 15 16 16 17
14 18 15 9 8 8 8 8 9 7 4 3 5 5 5 8 8 9 8 8 9 8 8 7 7 9 11 11 12 12 12 12 12 13 13 13 11 12 13 13 13 12 13
20 21 17 13 9 10 10 10 7 6 5 6 5 6 7 8 8 8 7 7 7 8 7 6 4 5 6 8 8 9 10 11 11 11 13 12 10 11 11 11 11 11 11
Wind_Direction
77 62 57 56 56 41 28 30 36 21 14 37 54 12 329 319 312 307 282 277 274 279 282 287 285 287 290 280 283 289 291 297 293 288 293 302 310 316 319 323 319 312 316
61 62 63 58 50 40 32 27 29 30 46 27 35 36 18 358 349 337 325 315 309 306 302 301 297 296 292 291 294 296 293 294 294 293 303 304 309 307 314 312 309 315 317
61 63 57 50 46 44 33 33 32 35 37 35 20 36 35 28 25 12 8 360 349 332 322 318 310 311 309 304 314 311 308 315 310 305 304 303 314 314 312 318 316 313 318
59 56 53 47 47 47 43 36 32 37 32 29 28 27 26 23 24 23 16 7 4 354 352 356 332 335 341 319 315 320 324 330 329 318 315 311 312 311 312 312 307 313 312
62 57 48 50 52 48 46 53 46 38 38 32 33 31 28 26 25 27 27 22 14 10 6 356 344 342 342 340 337 335 332 331 328 324 316 312 312 317 310 311 308 312 317
68 67 42 46 52 48 49 61 63 55 49 41 31 27 22 21 27 29 27 23 19 14 5 352 345 343 343 343 339 333 333 327 325 320 315 313 313 316 312 308 310 304 303
18 40 25 35 42 50 52 57 61 56 47 37 32 30 29 28 30 25 22 20 19 14 10 7 4 356 351 349 345 343 338 333 329 327 325 323 324 328 339 335 349 327 321
333 11 20 26 40 44 53 56 51 45 37 32 29 28 31 32 36 33 25 15 8 4 4 9 6 7 8 12 10 6 1 1 2 4 1 352 344 336 334 329 329 329 327
314 335 20 34 47 48 62 60 46 38 27 24 23 26 37 30 30 29 27 24 20 12 8 12 14 11 9 8 7 2 0 3 6 11 11 6 1 355 346 344 330 317 311
318 307 346 13 55 69 58 48 32 26 22 20 18 17 24 22 17 19 18 16 13 12 12 10 9 11 10 6 4 358 355 348 350 352 350 348 348 344 342 341 331 321 316
346 333 323 328 343 358 31 43 42 33 23 15 15 10 10 7 6 8 12 14 19 15 11 9 7 7 6 4 2 360 355 358 356 354 346 344 339 337 336 338 337 331 323
353 353 340 326 323 334 3 22 25 16 7 5 8 9 3 3 9 13 17 23 20 17 9 3 1 360 1 0 358 358 359 359 356 351 348 345 344 340 337 337 333 331 331
1 3 358 348 338 330 327 333 9 8 2 9 10 9 7 11 19 23 24 18 9 8 7 5 5 6 6 4 4 3 0 357 354 351 347 344 343 342 340 338 337 336 335
6 5 5 3 355 347 349 350 331 1 6 3 5 13 17 16 17 17 21 21 15 7 6 7 9 7 8 3 1 0 360 358 358 356 353 350 346 344 342 340 338 337 335
18 18 14 12 16 8 5 354 352 356 360 5 13 17 21 22 20 26 24 16 14 12 7 2 1 2 3 2 3 3 1 1 359 358 354 350 347 344 342 342 341 339 338
29 29 30 34 31 28 20 8 354 349 351 9 13 18 16 25 26 21 14 8 10 18 11 8 6 9 11 7 4 1 0 358 356 355 353 351 347 345 343 342 343 341 338
40 37 40 38 37 34 26 22 18 6 7 6 14 19 21 17 9 2 5 16 14 13 14 16 18 14 10 5 1 358 356 355 357 358 356 354 351 349 349 349 346 345 345
41 48 51 53 51 45 38 31 25 20 16 9 5 13 8 0 353 358 23 17 14 13 19 20 16 10 4 0 360 360 0 5 5 5 3 360 357 355 352 351 351 349 348
55 61 57 52 43 35 32 30 31 27 22 19 9 355 354 358 1 5 20 22 19 15 15 14 12 8 7 7 5 3 5 8 9 7 4 1 359 358 357 359 357 357 356
62 64 54 43 35 31 25 22 21 19 13 9 5 3 3 2 2 3 12 10 10 8 6 5 6 7 10 10 10 11 12 15 14 10 8 6 5 3 4 3 3 1 4
71 62 42 24 21 21 17 11 6 2 356 349 350 355 2 359 359 2 6 5 3 1 1 2 6 8 9 13 15 16 17 20 20 15 11 9 7 4 4 9 9 15 31
39 24 11 17 13 9 4 2 356 352 347 348 349 344 348 345 346 354 358 358 359 2 5 7 11 15 17 20 21 20 20 23 22 19 17 14 12 8 13 17 19 28 31
360 350 348 356 359 350 346 350 349 341 339 343 342 356 355 349 354 360 358 356 358 1 7 15 19 20 26 19 20 20 20 26 30 27 21 21 25 26 21 24 25 26 23
333 330 327 331 339 344 345 352 354 353 2 351 351 358 4 357 359 353 354 357 1 4 10 15 20 22 23 16 17 22 27 32 33 29 28 35 47 60 58 56 45 35 29
340 331 331 331 329 333 336 344 348 358 12 9 348 348 346 340 338 342 348 358 1 3 2 7 13 19 20 26 30 33 34 36 33 31 35 43 59 73 75 69 68 78 69
332 330 332 336 331 323 324 327 324 325 318 321 312 316 313 317 318 324 330 337 343 347 350 359 10 18 21 23 28 32 33 35 36 39 33 37 58 67 69 78 94 100 96